Hourly Data Report for November 18, 2012

BAGOTVILLE A
QUEBEC

48°20'00.000" N
71°00'00.000" W
159.10 m
7060400
71727
YBG

Download Data

Hourly Data (November 2012)
Hourly Data Report for November 18, 2012
TIME
LST
Temp Definition
°C
Dew Point Definition
°C
Rel Hum Definition
%
Precip. Amount Definition
mm

Wind Dir Definition
10's deg

Wind Spd Definition
km/h
Visibility Definition
km
Stn Press Definition
kPa
Hmdx Definition


Wind Chill Definition


Weather Definition


00:00 -8.9 -11.9 79   20 9 24.1 102.00   -14 Clear
01:00 -7.9 -11.5 75   21 6 24.1 102.01   -11 Clear
02:00 -8.5 -11.5 79   18 6 24.1 102.05   -12 Clear
03:00 -8.1 -11.8 75     0 24.1 102.05     Mainly Clear
04:00 -8.6 -11.2 81   16 4 24.1 102.06   -11 Mainly Clear
05:00 -9.4 -11.7 83   20 6 24.1 102.08   -13 Mainly Clear
06:00 -9.0 -12.1 78   19 7 24.1 102.09   -13 Mainly Clear
07:00 -8.7 -12.1 76   16 4 40.2 102.11   -11 Mainly Clear
08:00 -6.7 -11.6 68     0 40.2 102.09     Mainly Clear
09:00 -5.0 -8.2 78   11 7 40.2 102.06   -8 Mainly Clear
10:00 -2.8 -6.4 76   8 7 40.2 102.04   -6 Mostly Cloudy
11:00 -1.4 -4.3 81   13 9 40.2 101.99   -5 Mostly Cloudy
12:00 0.5 -9.6 47   9 6 40.2 101.92     Mostly Cloudy
13:00 1.8 -7.0 52   10 6 40.2 101.88     Mostly Cloudy
14:00 2.6 -8.0 45   12 6 40.2 101.78     Mostly Cloudy
15:00 2.2 -8.3 46   11 4 40.2 101.75     Mostly Cloudy
16:00 0.6 -7.1 56     0 40.2 101.73     Mostly Cloudy
17:00 -0.1 -4.8 71   10 9 24.1 101.71   -3 Mostly Cloudy
18:00 0.5 -4.9 67   9 6 24.1 101.74     Mostly Cloudy
19:00 -1.7 -6.0 72   10 6 24.1 101.73   -4 Mostly Cloudy
20:00 -3.7 -8.0 72     0 24.1 101.72     Mostly Cloudy
21:00 -5.0 -7.5 83   23 6 24.1 101.69   -8 Mostly Cloudy
22:00 -5.1 -7.7 82   19 6 24.1 101.63   -8 Mostly Cloudy
23:00 -4.6 -8.1 76     0 24.1 101.58     Mainly Clear

Notes on Data Quality.

Legend

  • E = Estimated
  • M = Missing
  • NA = Not Available*
  • [empty] = Indicates an unobserved value
Date modified: